Starlink 11511

operational
NORAD ID: 62468 Int'l Des: 2024-254 Owner: SPXS Country: US Constellation: starlink
LEOCIRCULAR

Starlink 11511について

説明を読み込み中...

リアルタイム位置

3D地球を読み込み中...

次回通過

高度履歴

Altitude vs Time

uPlot chart will show altitude changes over time

軌道要素

1 62468U 24254G 25301.00816675 .00322820 00000-0 24078-2 0 9997
2 62468 43.0000 302.7628 0001454 253.5768 106.4940 15.70988388 48534
Epoch: Oct 28, 2025 • Age: 21 hours

現在のステータス

高度 359.0 km
速度 7.69 km/s
衛星直下点 -22.19°S, 151.9°E
打ち上げ日 Dec 31, 2024
運用期間 0.8 years
タイプ internet

技術仕様

分類 Payload
質量 960.00 kg
乾燥質量 910.00 kg
総質量 960.00 kg
長さ 0.30 m
直径 4.10 m
スパン 29.00 m
形状 Box + pan
製造者 SPXS
バスタイプ Starlink V2MD
フェーズステータス In Orbit
所有者/国 SPXS/US

大規模コンステレーション

Loading constellations...